Simultaneous Nadir Overpasses (SNOs) Predictions

Prediction of SNOs between AQUA and GOES-15 Satellite Orbit:

Table of predicted SNOs for the next 14.0 days since TLE Epoch: 8/1/2014
Index Date Time (AQUA) AQUA Lat,Lon GOES-15 Lat,Lon Distance(km) Time Diff (sec)
1 08/02/2014 10:32:19 -0.50,-134.23 -0.22,-135.48 142.66 80
2 08/02/2014 22:53:42 -0.63,-139.41 0.23,-135.50 446.10 80
3 08/04/2014 10:20:08 -1.11,-131.27 -0.22,-135.49 479.61 80
4 08/04/2014 22:41:32 0.04,-136.47 0.23,-135.51 109.33 80
5 08/06/2014 22:29:21 0.67,-133.52 0.24,-135.51 226.61 80
6 08/07/2014 10:50:37 0.41,-138.68 -0.25,-135.49 361.70 80
7 08/09/2014 10:38:25 -0.18,-135.72 -0.25,-135.49 26.64 80
8 08/11/2014 10:26:14 -0.84,-132.77 -0.26,-135.48 308.47 80
9 08/11/2014 22:47:38 -0.27,-137.96 0.26,-135.49 280.82 80
10 08/13/2014 22:35:26 0.35,-135.00 0.26,-135.48 53.90 80




NCC Satellite Simultaneous Nadir Overpasses (SNOs) Prediction Service
